User: anonymous   Login
Location: Unspecified
(0.0000°N, 0.0000°E)
Time: 21:18:12
(UTC+00:00)
Language:

FALCON 9 R/B - Orbit

View from above orbital plane
View from above orbital plane
View from above satellite
View from above satellite

Ground track
Ground track

The orbit data is extracted from the following two-line orbital elements,

1 37253U 10066K   17229.37634110  .00002764  00000-0  30176-3 0  9998
2 37253  34.5083 259.9803 4271517 334.4233   9.4895  6.89744832164805
Epoch (UTC): 17 August 2017 09:01:55
Eccentricity: 0.4271517
inclination: 34.5083°
perigee height: 300 km
apogee height: 10259 km
right ascension of ascending node: 259.9803°
argument of perigee: 334.4233°
revolutions per day: 6.89744832
mean anomaly at epoch: 9.4895°
orbit number at epoch: 16480

The dashed part of the orbit path shows where the satellite is in the earth's shadow,  

DLR